Printer-friendly version

IAU Minor Planet Center

Minor Planet Center

MPEC 2009-W41 : 2009 WQ6

The following Minor Planet Electronic Circular may be linked-to from your own Web pages, but must not otherwise be redistributed electronically.


Read MPEC 2009-W40 Read MPEC 2009-W42


M.P.E.C. 2009-W41                                Issued 2009 Nov. 19, 18:36 UT

     The Minor Planet Electronic Circulars contain information on unusual
         minor planets and routine data on comets.  They are published
   on behalf of Commission 20 of the International Astronomical Union by the
          Minor Planet Center, Smithsonian Astrophysical Observatory,
                          Cambridge, MA 02138, U.S.A.

             Prepared using the Tamkin Foundation Computer Network

                              MPC@CFA.HARVARD.EDU
          URL http://www.cfa.harvard.edu/iau/mpc.html  ISSN 1523-6714

                                   2009 WQ6

Observations:
     K09W06Q* C2009 11 18.25494 02 09 20.05 +12 44 14.8          20.7 V EW041G96
     K09W06Q  C2009 11 18.26022 02 09 12.70 +12 46 26.2          20.0 V EW041G96
     K09W06Q  C2009 11 18.26550 02 09 05.43 +12 48 35.2          21.4 V EW041G96
     K09W06Q  C2009 11 18.27067 02 08 58.30 +12 50 41.8          20.4 V EW041G96
     K09W06Q  C2009 11 18.31940 02 07 54.25 +13 09 47.2          20.2 V EW041G96
     K09W06Q  C2009 11 18.32785 02 07 43.68 +13 12 58.2          21.6 V EW041G96
     K09W06Q  C2009 11 18.33638 02 07 33.16 +13 16 07.8                 EW041G96
     K09W06Q  C2009 11 18.34509 02 07 22.82 +13 19 17.1          20.6 V EW041G96
     K09W06Q  C2009 11 18.38462 02 06 36.66 +13 32 49.4          19.3 R EW041H01
     K09W06Q  C2009 11 18.38819 02 06 32.85 +13 34 02.6          19.3 R EW041H01
     K09W06Q  C2009 11 18.39117 02 06 29.68 +13 35 03.5          19.2 R EW041H01
     K09W06Q  C2009 11 18.39495 02 06 25.72 +13 36 20.4          19.5 R EW041H01
     K09W06Q  C2009 11 19.16215 01 58 56.96 +16 42 05.0          21.4 V EW041G96
     K09W06Q  C2009 11 19.16289 01 58 56.46 +16 42 12.8          22.2 V EW041G96
     K09W06Q  C2009 11 19.16364 01 58 56.02 +16 42 20.0          21.4 V EW041G96
     K09W06Q  C2009 11 19.17118 01 58 51.27 +16 43 36.6          22.0 V EW041G96
     K09W06Q  C2009 11 19.17206 01 58 50.70 +16 43 45.4          21.4 V EW041G96
     K09W06Q  C2009 11 19.17303 01 58 50.08 +16 43 54.2          20.9 V EW041G96
     K09W06Q  C2009 11 19.28196 01 57 43.70 +17 00 53.7          21.9 V EW041G96
     K09W06Q  C2009 11 19.28276 01 57 43.22 +17 01 00.7          22.5 V EW041G96

Observer details:
G96 Mt. Lemmon Survey.  Observers S. M. Larson, A. R. Gibbs.  Measurers
    E. C. Beshore, A. Boattini, G. J. Garradd, A. R. Gibbs, A. D. Grauer,
    R. E. Hill, R. A. Kowalski, S. M. Larson, R. H. McNaught.  1.5-m reflector
    + CCD.
H01 Magdalena Ridge Observatory, Socorro.  Observers W. H. Ryan, E. V. Ryan.
    Measurer W. H. Ryan.  2.4-m f/8.9 reflector + CCD.

Orbital elements:
2009 WQ6                                                 Earth MOID = 0.0024 AU
Epoch 2010 Jan. 4.0 TT = JDT 2455200.5                  MPC
M 147.23358              (2000.0)            P               Q
n   1.22142663     Peri.  227.28540     +0.22162006     +0.97153267
a   0.8667446      Node    55.70248     -0.86243743     +0.23534928
e   0.4086581      Incl.    5.81630     -0.45506729     +0.02711050
P   0.81           H   29.2           G   0.15           U   8
Residuals in seconds of arc
091118 G96  0.1-  0.5+    091118 G96  1.0+  0.8-    091119 G96  0.2+  0.3-
091118 G96  0.0   0.5+    091118 H01  0.1+  0.1+    091119 G96  0.1+  0.1+
091118 G96  0.5+  0.8-    091118 H01  0.2+  0.0     091119 G96  0.1-  0.1+
091118 G96  0.1+  0.8-    091118 H01  0.0   0.1+    091119 G96  0.3-  0.9-
091118 G96  0.1-  0.3-    091118 H01  0.2+  0.1+    091119 G96  0.2+  0.4+
091118 G96  0.5-  0.7+    091119 G96  0.3+  0.1-    091119 G96  0.1-  0.4+
091118 G96  1.3-  0.8+    091119 G96  0.2-  0.1+

Ephemeris:
2009 WQ6                 a,e,i = 0.87, 0.41, 6                   q = 0.5125
Date    TT    R. A. (2000) Decl.     Delta      r     Elong.  Phase     V
2009 11 15    13 13.42   -31 01.0    0.0129   0.978    31.4   148.2    27.8
2009 11 16    12 32.43   -40 28.1    0.00599  0.985    42.8   137.0    24.5
2009 11 17    03 45.50   -23 23.7    0.00285  0.991   137.5    42.4    18.1
2009 11 18    02 15.00   +10 42.1    0.00906  0.997   159.3    20.5    20.0
2009 11 19    02 00.05   +16 16.1    0.0161   1.003   156.6    23.0    21.3
2009 11 20    01 54.06   +18 25.8    0.0232   1.009   154.6    24.8    22.2
2009 11 21    01 50.90   +19 34.5    0.0303   1.015   153.0    26.2    22.8
2009 11 22    01 48.99   +20 17.0    0.0374   1.021   151.7    27.3    23.3
2009 11 23    01 47.77   +20 46.0    0.0446   1.027   150.5    28.3    23.8
2009 11 24    01 46.97   +21 07.1    0.0518   1.032   149.3    29.2    24.1
2009 11 25    01 46.45   +21 23.1    0.0590   1.038   148.3    30.0    24.4

Sonia Keys                   (C) Copyright 2009 MPC           M.P.E.C. 2009-W41

Read MPEC 2009-W40 Read MPEC 2009-W42

Valid HTML 4.01!